QPF
0.03 0.03 0.04 0.04 0.04 0.04 0.03 0.05 0.07 0.10 0.09 0.06 0.06 0.05 0.06 0.06 0.05 0.04 0.05 0.06 0.06 0.08 0.09 0.09 0.08 0.06 0.04 0.03 0.03 0.04 0.04 0.04 0.05 0.05 0.04 0.03 0.03 0.03 0.04 0.04 0.03 0.02 0.01
0.03 0.02 0.04 0.06 0.05 0.05 0.05 0.05 0.08 0.11 0.12 0.08 0.06 0.04 0.04 0.05 0.05 0.05 0.06 0.06 0.06 0.06 0.07 0.07 0.07 0.07 0.05 0.03 0.03 0.03 0.04 0.04 0.04 0.05 0.05 0.05 0.04 0.03 0.03 0.04 0.03 0.02 0.01
0.03 0.03 0.03 0.07 0.10 0.09 0.09 0.08 0.09 0.12 0.13 0.11 0.07 0.06 0.06 0.06 0.05 0.05 0.06 0.07 0.06 0.06 0.07 0.06 0.06 0.06 0.06 0.04 0.03 0.03 0.03 0.03 0.03 0.04 0.05 0.05 0.04 0.03 0.02 0.03 0.03 0.02 0.01
0.03 0.03 0.03 0.04 0.09 0.10 0.08 0.09 0.11 0.13 0.14 0.15 0.11 0.08 0.07 0.06 0.05 0.05 0.05 0.06 0.07 0.07 0.06 0.06 0.06 0.07 0.06 0.05 0.04 0.03 0.03 0.03 0.04 0.05 0.05 0.05 0.04 0.03 0.03 0.03 0.03 0.02 0.01
0.04 0.04 0.04 0.04 0.06 0.09 0.09 0.08 0.09 0.11 0.13 0.16 0.16 0.13 0.09 0.06 0.05 0.05 0.05 0.06 0.07 0.07 0.07 0.05 0.06 0.07 0.09 0.08 0.06 0.05 0.04 0.03 0.03 0.04 0.05 0.05 0.04 0.03 0.03 0.03 0.02 0.02 0.01
0.02 0.03 0.04 0.04 0.05 0.06 0.07 0.08 0.09 0.11 0.13 0.15 0.16 0.16 0.13 0.09 0.07 0.06 0.06 0.07 0.08 0.08 0.08 0.07 0.06 0.06 0.08 0.09 0.09 0.08 0.07 0.06 0.04 0.04 0.04 0.05 0.04 0.03 0.03 0.04 0.03 0.02 0.01
0.01 0.03 0.03 0.04 0.04 0.05 0.06 0.07 0.08 0.09 0.12 0.13 0.16 0.17 0.15 0.12 0.09 0.08 0.08 0.10 0.10 0.09 0.09 0.07 0.05 0.05 0.06 0.07 0.07 0.07 0.06 0.05 0.04 0.04 0.04 0.05 0.04 0.03 0.03 0.04 0.04 0.04 0.03
0.01 0.02 0.04 0.05 0.04 0.04 0.05 0.06 0.07 0.08 0.10 0.10 0.12 0.15 0.16 0.15 0.12 0.10 0.10 0.12 0.13 0.13 0.14 0.10 0.06 0.05 0.06 0.05 0.05 0.05 0.05 0.04 0.03 0.03 0.03 0.03 0.05 0.05 0.04 0.04 0.04 0.04 0.03
0.02 0.03 0.03 0.05 0.04 0.04 0.04 0.04 0.05 0.06 0.08 0.10 0.09 0.10 0.14 0.16 0.15 0.12 0.12 0.13 0.14 0.13 0.14 0.14 0.10 0.06 0.05 0.05 0.06 0.06 0.05 0.04 0.04 0.03 0.03 0.03 0.03 0.05 0.05 0.04 0.04 0.04 0.03
0.02 0.03 0.03 0.04 0.05 0.04 0.04 0.03 0.04 0.04 0.04 0.07 0.08 0.08 0.10 0.14 0.16 0.16 0.14 0.14 0.15 0.14 0.12 0.11 0.10 0.08 0.06 0.06 0.07 0.07 0.07 0.06 0.05 0.04 0.03 0.03 0.03 0.03 0.04 0.05 0.05 0.04 0.03
0.02 0.03 0.03 0.04 0.05 0.04 0.04 0.04 0.03 0.03 0.03 0.04 0.05 0.06 0.07 0.10 0.14 0.17 0.17 0.15 0.14 0.15 0.14 0.11 0.12 0.11 0.09 0.08 0.08 0.09 0.09 0.07 0.06 0.05 0.04 0.04 0.03 0.03 0.04 0.04 0.05 0.05 0.04
0.02 0.03 0.04 0.05 0.05 0.05 0.04 0.04 0.03 0.03 0.02 0.03 0.04 0.04 0.05 0.08 0.11 0.15 0.18 0.17 0.14 0.14 0.14 0.15 0.16 0.17 0.14 0.10 0.07 0.08 0.09 0.09 0.07 0.05 0.05 0.04 0.03 0.03 0.03 0.03 0.04 0.05 0.04
0.03 0.04 0.05 0.06 0.07 0.05 0.05 0.03 0.02 0.02 0.02 0.02 0.03 0.04 0.06 0.07 0.08 0.10 0.13 0.15 0.15 0.14 0.11 0.12 0.15 0.17 0.16 0.13 0.11 0.09 0.09 0.10 0.09 0.07 0.07 0.06 0.05 0.04 0.03 0.03 0.03 0.03 0.04
0.02 0.03 0.04 0.05 0.08 0.06 0.05 0.05 0.04 0.03 0.03 0.02 0.02 0.03 0.04 0.05 0.06 0.06 0.08 0.09 0.09 0.09 0.09 0.07 0.08 0.09 0.11 0.13 0.13 0.11 0.09 0.09 0.10 0.09 0.08 0.07 0.08 0.07 0.06 0.05 0.05 0.04 0.04
0.02 0.03 0.03 0.04 0.07 0.06 0.06 0.05 0.05 0.04 0.03 0.03 0.02 0.02 0.04 0.04 0.04 0.05 0.06 0.07 0.08 0.06 0.06 0.05 0.05 0.06 0.07 0.08 0.10 0.11 0.11 0.11 0.11 0.10 0.09 0.08 0.08 0.07 0.07 0.07 0.06 0.06 0.06
0.03 0.03 0.04 0.04 0.06 0.07 0.07 0.06 0.05 0.04 0.03 0.03 0.02 0.02 0.03 0.04 0.05 0.04 0.04 0.05 0.06 0.06 0.06 0.04 0.04 0.04 0.05 0.06 0.07 0.09 0.10 0.11 0.11 0.10 0.10 0.10 0.10 0.09 0.08 0.07 0.06 0.05 0.05
0.03 0.03 0.04 0.05 0.06 0.07 0.07 0.08 0.06 0.04 0.04 0.03 0.03 0.03 0.03 0.04 0.05 0.04 0.03 0.03 0.04 0.05 0.06 0.05 0.04 0.03 0.03 0.05 0.05 0.07 0.09 0.10 0.09 0.09 0.09 0.09 0.08 0.07 0.06 0.06 0.05 0.05 0.04
0.03 0.03 0.04 0.05 0.06 0.06 0.07 0.09 0.07 0.04 0.04 0.04 0.03 0.03 0.04 0.04 0.05 0.04 0.03 0.02 0.03 0.03 0.04 0.06 0.07 0.07 0.05 0.05 0.06 0.05 0.07 0.09 0.10 0.09 0.08 0.08 0.08 0.07 0.06 0.05 0.04 0.04 0.04
0.03 0.03 0.04 0.06 0.06 0.06 0.08 0.10 0.08 0.05 0.05 0.06 0.05 0.04 0.04 0.04 0.05 0.04 0.02 0.02 0.02 0.02 0.02 0.03 0.05 0.06 0.07 0.07 0.07 0.08 0.07 0.08 0.09 0.10 0.09 0.08 0.07 0.07 0.07 0.05 0.04 0.04 0.03
0.03 0.03 0.04 0.06 0.05 0.06 0.07 0.09 0.09 0.06 0.05 0.07 0.07 0.05 0.04 0.04 0.04 0.03 0.02 0.02 0.02 0.01 0.02 0.02 0.03 0.03 0.05 0.07 0.07 0.08 0.07 0.08 0.07 0.08 0.08 0.10 0.09 0.07 0.05 0.04 0.04 0.04 0.03
0.03 0.04 0.04 0.05 0.04 0.05 0.05 0.06 0.08 0.08 0.07 0.07 0.08 0.07 0.06 0.05 0.04 0.03 0.02 0.02 0.02 0.01 0.02 0.02 0.02 0.02 0.03 0.04 0.06 0.07 0.07 0.07 0.06 0.07 0.06 0.07 0.09 0.08 0.06 0.05 0.04 0.03 0.03
0.03 0.04 0.04 0.05 0.04 0.04 0.05 0.05 0.06 0.07 0.07 0.07 0.08 0.08 0.07 0.06 0.06 0.04 0.02 0.02 0.02 0.02 0.02 0.02 0.02 0.03 0.03 0.03 0.05 0.07 0.07 0.07 0.07 0.06 0.06 0.06 0.07 0.07 0.07 0.06 0.05 0.05 0.04
0.03 0.04 0.04 0.04 0.04 0.04 0.04 0.04 0.05 0.06 0.06 0.06 0.08 0.08 0.07 0.06 0.06 0.05 0.03 0.03 0.03 0.03 0.03 0.03 0.03 0.03 0.03 0.04 0.05 0.06 0.06 0.07 0.07 0.06 0.06 0.06 0.06 0.06 0.06 0.07 0.07 0.06 0.05
0.03 0.04 0.04 0.04 0.05 0.04 0.04 0.04 0.04 0.04 0.05 0.05 0.06 0.07 0.06 0.06 0.06 0.06 0.05 0.05 0.05 0.05 0.04 0.04 0.04 0.04 0.04 0.05 0.05 0.05 0.06 0.07 0.06 0.06 0.06 0.06 0.05 0.05 0.06 0.07 0.07 0.06 0.05
0.03 0.04 0.04 0.04 0.05 0.04 0.04 0.04 0.04 0.04 0.04 0.04 0.04 0.05 0.05 0.05 0.06 0.06 0.06 0.07 0.06 0.06 0.06 0.06 0.05 0.05 0.05 0.06 0.06 0.05 0.05 0.06 0.06 0.07 0.07 0.06 0.05 0.05 0.04 0.04 0.05 0.05 0.06
0.02 0.03 0.03 0.04 0.04 0.04 0.04 0.03 0.04 0.05 0.05 0.05 0.04 0.04 0.04 0.04 0.05 0.06 0.06 0.07 0.07 0.06 0.05 0.06 0.06 0.05 0.06 0.06 0.06 0.05 0.05 0.05 0.05 0.05 0.05 0.05 0.04 0.03 0.03 0.03 0.03 0.03 0.04
MSLP
1025.27 1024.90 1024.47 1024.00 1023.53 1023.04 1022.51 1021.93 1021.23 1020.40 1019.42 1018.29 1017.05 1015.72 1014.37 1013.04 1011.77 1010.61 1009.59 1008.74 1008.08 1007.63 1007.43 1007.51 1007.86 1008.47 1009.32 1010.36 1011.53 1012.77 1014.01 1015.19 1016.29 1017.29 1018.20 1019.03 1019.82 1020.58 1021.30 1022.00 1022.66 1023.27 1023.81
1025.65 1025.19 1024.66 1024.07 1023.48 1022.89 1022.28 1021.62 1020.89 1020.02 1019.01 1017.83 1016.52 1015.09 1013.59 1012.09 1010.65 1009.32 1008.17 1007.23 1006.54 1006.14 1006.05 1006.28 1006.80 1007.60 1008.62 1009.80 1011.08 1012.38 1013.66 1014.86 1015.97 1016.99 1017.92 1018.79 1019.62 1020.41 1021.19 1021.92 1022.62 1023.25 1023.81
1026.09 1025.54 1024.86 1024.14 1023.40 1022.67 1021.95 1021.21 1020.43 1019.54 1018.52 1017.33 1015.98 1014.49 1012.90 1011.26 1009.67 1008.19 1006.90 1005.86 1005.13 1004.75 1004.73 1005.08 1005.76 1006.71 1007.88 1009.19 1010.56 1011.92 1013.22 1014.43 1015.54 1016.54 1017.48 1018.36 1019.21 1020.05 1020.86 1021.64 1022.38 1023.05 1023.66
1026.56 1025.89 1025.08 1024.20 1023.29 1022.40 1021.55 1020.72 1019.87 1018.97 1017.95 1016.78 1015.45 1013.94 1012.31 1010.61 1008.91 1007.31 1005.90 1004.77 1003.98 1003.59 1003.60 1004.02 1004.80 1005.87 1007.15 1008.55 1009.99 1011.39 1012.70 1013.90 1014.98 1015.97 1016.89 1017.76 1018.63 1019.49 1020.34 1021.17 1021.95 1022.68 1023.33
1027.01 1026.25 1025.31 1024.27 1023.19 1022.14 1021.14 1020.19 1019.28 1018.35 1017.35 1016.22 1014.94 1013.48 1011.87 1010.15 1008.42 1006.75 1005.26 1004.06 1003.20 1002.77 1002.77 1003.21 1004.03 1005.15 1006.48 1007.93 1009.39 1010.80 1012.11 1013.28 1014.34 1015.30 1016.20 1017.06 1017.93 1018.80 1019.67 1020.54 1021.37 1022.14 1022.85
1027.43 1026.60 1025.56 1024.38 1023.15 1021.94 1020.79 1019.73 1018.73 1017.77 1016.78 1015.71 1014.50 1013.13 1011.60 1009.94 1008.23 1006.56 1005.04 1003.78 1002.86 1002.37 1002.32 1002.72 1003.51 1004.62 1005.94 1007.37 1008.82 1010.22 1011.50 1012.65 1013.68 1014.61 1015.48 1016.33 1017.18 1018.06 1018.94 1019.82 1020.69 1021.50 1022.26
1027.82 1026.94 1025.83 1024.57 1023.22 1021.88 1020.60 1019.42 1018.34 1017.34 1016.36 1015.33 1014.21 1012.95 1011.53 1009.98 1008.35 1006.74 1005.23 1003.95 1002.99 1002.42 1002.28 1002.59 1003.29 1004.31 1005.55 1006.92 1008.32 1009.67 1010.91 1012.04 1013.04 1013.95 1014.80 1015.63 1016.47 1017.33 1018.21 1019.10 1019.97 1020.82 1021.61
1028.13 1027.26 1026.14 1024.83 1023.42 1022.00 1020.62 1019.34 1018.19 1017.14 1016.15 1015.17 1014.13 1012.98 1011.70 1010.29 1008.79 1007.26 1005.81 1004.54 1003.53 1002.88 1002.63 1002.81 1003.36 1004.24 1005.35 1006.60 1007.91 1009.18 1010.38 1011.46 1012.44 1013.33 1014.17 1014.99 1015.81 1016.65 1017.52 1018.40 1019.28 1020.13 1020.94
1028.34 1027.52 1026.44 1025.17 1023.77 1022.32 1020.89 1019.56 1018.34 1017.25 1016.24 1015.28 1014.31 1013.26 1012.12 1010.85 1009.49 1008.08 1006.71 1005.46 1004.43 1003.70 1003.32 1003.33 1003.70 1004.38 1005.31 1006.40 1007.57 1008.75 1009.87 1010.92 1011.87 1012.75 1013.58 1014.39 1015.21 1016.03 1016.89 1017.75 1018.62 1019.47 1020.29
1028.41 1027.67 1026.71 1025.53 1024.21 1022.82 1021.41 1020.06 1018.82 1017.69 1016.66 1015.70 1014.77 1013.80 1012.76 1011.62 1010.40 1009.11 1007.83 1006.62 1005.58 1004.77 1004.25 1004.07 1004.23 1004.69 1005.40 1006.29 1007.30 1008.34 1009.38 1010.37 1011.30 1012.17 1012.99 1013.80 1014.61 1015.43 1016.26 1017.12 1017.98 1018.82 1019.65
1028.28 1027.69 1026.88 1025.88 1024.71 1023.44 1022.12 1020.82 1019.58 1018.43 1017.38 1016.41 1015.48 1014.56 1013.59 1012.56 1011.44 1010.27 1009.07 1007.91 1006.85 1005.97 1005.32 1004.96 1004.89 1005.10 1005.57 1006.24 1007.05 1007.94 1008.86 1009.78 1010.66 1011.51 1012.33 1013.14 1013.94 1014.76 1015.60 1016.45 1017.30 1018.16 1019.00
1027.95 1027.53 1026.93 1026.15 1025.20 1024.12 1022.94 1021.74 1020.55 1019.41 1018.34 1017.34 1016.40 1015.48 1014.55 1013.57 1012.54 1011.45 1010.32 1009.20 1008.14 1007.19 1006.42 1005.89 1005.60 1005.58 1005.79 1006.22 1006.81 1007.53 1008.31 1009.12 1009.94 1010.75 1011.55 1012.35 1013.16 1013.98 1014.82 1015.68 1016.56 1017.43 1018.29
1027.45 1027.22 1026.85 1026.32 1025.62 1024.77 1023.79 1022.72 1021.61 1020.50 1019.42 1018.40 1017.42 1016.47 1015.54 1014.59 1013.61 1012.57 1011.50 1010.42 1009.36 1008.37 1007.50 1006.82 1006.34 1006.08 1006.06 1006.25 1006.61 1007.12 1007.74 1008.42 1009.15 1009.90 1010.66 1011.44 1012.24 1013.06 1013.92 1014.80 1015.70 1016.60 1017.50
1026.83 1026.79 1026.66 1026.38 1025.95 1025.34 1024.57 1023.66 1022.66 1021.60 1020.53 1019.48 1018.46 1017.47 1016.51 1015.55 1014.59 1013.59 1012.57 1011.52 1010.47 1009.46 1008.53 1007.73 1007.09 1006.64 1006.39 1006.35 1006.49 1006.79 1007.22 1007.75 1008.35 1009.00 1009.70 1010.43 1011.20 1012.02 1012.89 1013.79 1014.73 1015.67 1016.62
1026.18 1026.32 1026.40 1026.36 1026.16 1025.79 1025.23 1024.49 1023.60 1022.61 1021.56 1020.49 1019.42 1018.39 1017.39 1016.42 1015.46 1014.49 1013.50 1012.49 1011.47 1010.47 1009.51 1008.63 1007.88 1007.27 1006.84 1006.59 1006.51 1006.60 1006.83 1007.18 1007.62 1008.15 1008.74 1009.41 1010.14 1010.93 1011.79 1012.71 1013.67 1014.65 1015.64
1025.59 1025.87 1026.12 1026.27 1026.27 1026.10 1025.73 1025.15 1024.38 1023.46 1022.45 1021.37 1020.28 1019.21 1018.18 1017.18 1016.22 1015.27 1014.32 1013.36 1012.39 1011.42 1010.46 1009.56 1008.74 1008.02 1007.45 1007.02 1006.75 1006.64 1006.66 1006.82 1007.08 1007.45 1007.91 1008.47 1009.12 1009.86 1010.70 1011.61 1012.58 1013.59 1014.61
1025.11 1025.49 1025.85 1026.13 1026.29 1026.27 1026.05 1025.61 1024.95 1024.12 1023.15 1022.10 1021.00 1019.91 1018.86 1017.85 1016.89 1015.97 1015.07 1014.17 1013.26 1012.35 1011.43 1010.54 1009.69 1008.92 1008.24 1007.68 1007.25 1006.95 1006.78 1006.73 1006.81 1006.99 1007.29 1007.71 1008.25 1008.90 1009.68 1010.55 1011.51 1012.52 1013.54
1024.76 1025.20 1025.61 1025.97 1026.21 1026.30 1026.19 1025.87 1025.32 1024.58 1023.67 1022.66 1021.59 1020.52 1019.47 1018.47 1017.53 1016.65 1015.79 1014.96 1014.13 1013.28 1012.43 1011.58 1010.75 1009.95 1009.22 1008.56 1008.00 1007.54 1007.19 1006.95 1006.82 1006.81 1006.93 1007.18 1007.57 1008.10 1008.78 1009.58 1010.49 1011.47 1012.49
1024.52 1024.95 1025.38 1025.76 1026.05 1026.20 1026.18 1025.95 1025.51 1024.86 1024.05 1023.10 1022.09 1021.06 1020.04 1019.07 1018.17 1017.33 1016.53 1015.76 1015.00 1014.24 1013.46 1012.67 1011.87 1011.09 1010.33 1009.61 1008.95 1008.36 1007.85 1007.43 1007.11 1006.90 1006.81 1006.87 1007.08 1007.46 1008.01 1008.71 1009.54 1010.46 1011.43
1024.31 1024.71 1025.11 1025.48 1025.79 1025.98 1026.03 1025.89 1025.55 1025.01 1024.30 1023.45 1022.52 1021.55 1020.60 1019.68 1018.82 1018.02 1017.28 1016.57 1015.88 1015.19 1014.48 1013.75 1013.00 1012.24 1011.48 1010.73 1010.00 1009.31 1008.66 1008.08 1007.58 1007.17 1006.88 1006.73 1006.75 1006.95 1007.33 1007.90 1008.61 1009.45 1010.37
1024.07 1024.42 1024.78 1025.13 1025.44 1025.67 1025.77 1025.72 1025.48 1025.05 1024.46 1023.73 1022.90 1022.02 1021.14 1020.29 1019.48 1018.73 1018.03 1017.37 1016.73 1016.09 1015.44 1014.76 1014.06 1013.33 1012.58 1011.81 1011.04 1010.27 1009.52 1008.80 1008.13 1007.54 1007.05 1006.70 1006.51 1006.50 1006.70 1007.11 1007.69 1008.42 1009.26
1023.76 1024.06 1024.38 1024.71 1025.02 1025.28 1025.44 1025.47 1025.33 1025.02 1024.55 1023.94 1023.23 1022.46 1021.66 1020.87 1020.12 1019.41 1018.74 1018.11 1017.50 1016.90 1016.28 1015.64 1014.97 1014.26 1013.53 1012.76 1011.96 1011.14 1010.31 1009.49 1008.68 1007.92 1007.25 1006.70 1006.30 1006.09 1006.09 1006.31 1006.74 1007.35 1008.11
1023.39 1023.65 1023.94 1024.26 1024.58 1024.87 1025.09 1025.19 1025.15 1024.95 1024.60 1024.11 1023.50 1022.83 1022.11 1021.39 1020.69 1020.01 1019.37 1018.75 1018.15 1017.56 1016.96 1016.34 1015.69 1015.00 1014.28 1013.52 1012.72 1011.87 1010.99 1010.09 1009.18 1008.29 1007.45 1006.72 1006.12 1005.70 1005.50 1005.53 1005.79 1006.26 1006.91
1023.02 1023.25 1023.53 1023.85 1024.18 1024.49 1024.75 1024.92 1024.95 1024.85 1024.59 1024.21 1023.70 1023.12 1022.48 1021.82 1021.16 1020.51 1019.88 1019.27 1018.67 1018.07 1017.47 1016.85 1016.21 1015.54 1014.84 1014.10 1013.30 1012.46 1011.56 1010.61 1009.63 1008.64 1007.67 1006.78 1006.00 1005.39 1004.99 1004.82 1004.90 1005.21 1005.74
1022.73 1022.94 1023.21 1023.53 1023.87 1024.20 1024.48 1024.68 1024.77 1024.73 1024.55 1024.24 1023.82 1023.32 1022.75 1022.14 1021.52 1020.90 1020.28 1019.67 1019.06 1018.45 1017.84 1017.22 1016.58 1015.93 1015.25 1014.54 1013.77 1012.95 1012.06 1011.10 1010.09 1009.04 1007.98 1006.96 1006.03 1005.24 1004.64 1004.27 1004.15 1004.29 1004.66
1022.60 1022.80 1023.06 1023.37 1023.70 1024.02 1024.31 1024.52 1024.62 1024.61 1024.48 1024.23 1023.87 1023.43 1022.92 1022.37 1021.79 1021.20 1020.60 1019.99 1019.38 1018.76 1018.14 1017.52 1016.89 1016.25 1015.60 1014.92 1014.20 1013.42 1012.57 1011.64 1010.63 1009.56 1008.45 1007.34 1006.29 1005.34 1004.56 1004.00 1003.67 1003.61 1003.81
Thickness
5511 5513 5515 5518 5521 5524 5528 5531 5534 5537 5541 5544 5547 5552 5556 5562 5567 5571 5574 5577 5581 5585 5589 5593 5597 5600 5603 5607 5610 5612 5614 5615 5618 5618 5618 5620 5624 5626 5628 5630 5631 5632 5633
5498 5500 5502 5504 5507 5510 5514 5518 5521 5524 5529 5533 5536 5540 5545 5550 5555 5559 5562 5566 5569 5573 5578 5583 5586 5590 5594 5596 5599 5602 5604 5606 5609 5610 5610 5609 5612 5616 5620 5622 5624 5625 5627
5484 5486 5488 5490 5492 5495 5500 5505 5508 5513 5517 5521 5524 5528 5532 5537 5541 5546 5550 5554 5558 5562 5567 5571 5575 5579 5583 5587 5589 5593 5595 5597 5600 5604 5605 5604 5605 5606 5609 5613 5616 5618 5619
5471 5471 5473 5476 5478 5482 5486 5491 5496 5500 5504 5509 5512 5515 5520 5525 5531 5536 5539 5543 5547 5551 5555 5560 5564 5568 5573 5577 5580 5583 5586 5589 5591 5595 5599 5602 5604 5601 5600 5603 5607 5610 5612
5456 5457 5458 5461 5465 5469 5473 5478 5483 5487 5492 5496 5500 5504 5509 5514 5520 5524 5528 5532 5536 5540 5543 5548 5553 5557 5562 5566 5570 5573 5576 5580 5583 5586 5590 5593 5596 5598 5597 5596 5598 5600 5604
5443 5444 5447 5450 5454 5457 5461 5466 5470 5474 5479 5484 5488 5492 5497 5502 5507 5513 5516 5520 5524 5528 5532 5536 5541 5546 5551 5555 5560 5564 5567 5571 5575 5578 5581 5584 5587 5590 5592 5591 5591 5592 5595
5430 5432 5435 5437 5441 5444 5448 5453 5458 5462 5467 5471 5475 5481 5486 5490 5495 5501 5505 5508 5512 5516 5520 5525 5530 5534 5539 5545 5550 5554 5557 5562 5566 5570 5573 5576 5580 5583 5586 5586 5585 5585 5586
5419 5421 5422 5423 5426 5430 5434 5439 5445 5450 5455 5458 5463 5468 5472 5477 5482 5488 5493 5496 5501 5506 5509 5514 5519 5523 5528 5534 5539 5544 5548 5552 5557 5561 5564 5568 5572 5575 5577 5579 5579 5577 5577
5409 5410 5410 5411 5413 5417 5421 5426 5431 5437 5443 5446 5450 5455 5460 5465 5470 5476 5480 5484 5489 5494 5497 5502 5508 5512 5518 5523 5528 5534 5538 5542 5547 5551 5556 5560 5564 5567 5569 5572 5575 5574 5572
5399 5400 5400 5400 5402 5406 5411 5415 5418 5424 5430 5434 5438 5444 5448 5453 5458 5463 5468 5473 5478 5481 5486 5491 5497 5502 5507 5512 5517 5523 5527 5531 5537 5541 5546 5550 5555 5559 5561 5564 5567 5570 5571
5388 5389 5390 5391 5393 5395 5399 5402 5407 5412 5417 5421 5427 5432 5438 5442 5446 5451 5457 5463 5467 5471 5474 5480 5485 5490 5495 5501 5506 5511 5516 5521 5526 5531 5535 5541 5545 5549 5552 5555 5559 5562 5564
5378 5379 5380 5382 5383 5385 5388 5391 5396 5400 5405 5410 5415 5421 5427 5431 5435 5440 5445 5451 5455 5460 5463 5468 5473 5478 5483 5489 5495 5500 5505 5510 5516 5521 5525 5531 5535 5539 5543 5546 5550 5553 5556
5369 5370 5371 5372 5373 5375 5378 5382 5385 5389 5394 5399 5403 5409 5414 5419 5424 5429 5433 5439 5444 5448 5452 5457 5462 5467 5472 5478 5483 5489 5494 5499 5505 5510 5516 5521 5525 5530 5534 5537 5541 5545 5547
5360 5360 5361 5362 5363 5365 5368 5371 5374 5378 5383 5388 5392 5398 5403 5408 5413 5418 5422 5427 5432 5436 5441 5446 5450 5455 5461 5467 5473 5478 5483 5488 5494 5501 5506 5511 5516 5521 5525 5528 5532 5535 5537
5352 5351 5351 5352 5354 5356 5358 5361 5363 5368 5372 5377 5382 5388 5393 5398 5402 5407 5411 5416 5421 5425 5430 5435 5440 5445 5450 5456 5461 5467 5472 5478 5484 5491 5496 5501 5507 5511 5515 5519 5523 5526 5528
5343 5343 5343 5343 5345 5346 5349 5351 5353 5357 5361 5366 5372 5378 5383 5387 5392 5396 5401 5405 5410 5414 5418 5423 5428 5433 5439 5444 5450 5455 5461 5467 5473 5479 5485 5491 5496 5500 5504 5509 5513 5517 5520
5334 5333 5333 5334 5336 5337 5340 5341 5344 5348 5352 5357 5362 5367 5371 5376 5381 5386 5389 5393 5398 5403 5407 5412 5417 5424 5429 5433 5438 5444 5450 5456 5462 5468 5474 5480 5486 5489 5493 5497 5502 5506 5511
5324 5324 5325 5327 5328 5330 5331 5332 5335 5339 5342 5346 5351 5355 5360 5363 5369 5373 5378 5381 5386 5391 5397 5401 5406 5412 5417 5422 5426 5432 5438 5444 5451 5457 5463 5469 5474 5478 5482 5486 5490 5494 5498
5315 5315 5316 5317 5319 5321 5322 5324 5326 5329 5332 5336 5340 5344 5347 5351 5356 5361 5366 5370 5374 5380 5385 5390 5395 5400 5405 5409 5414 5419 5424 5431 5438 5444 5450 5457 5463 5467 5471 5473 5478 5481 5485
5306 5306 5307 5308 5309 5311 5312 5313 5316 5318 5322 5326 5328 5332 5335 5340 5344 5349 5354 5358 5363 5369 5373 5378 5382 5387 5392 5397 5401 5407 5413 5419 5426 5432 5439 5445 5451 5455 5458 5461 5465 5469 5474
5298 5298 5298 5298 5300 5301 5302 5303 5305 5308 5311 5314 5318 5322 5325 5329 5333 5338 5342 5346 5351 5356 5361 5366 5371 5375 5381 5384 5389 5395 5400 5406 5412 5419 5425 5431 5437 5442 5446 5450 5454 5459 5462
5289 5289 5288 5289 5290 5291 5291 5293 5295 5298 5301 5304 5308 5312 5315 5319 5323 5326 5330 5334 5339 5344 5349 5353 5358 5363 5367 5372 5377 5383 5388 5393 5399 5405 5411 5417 5422 5427 5432 5436 5442 5445 5448
5280 5279 5278 5279 5280 5281 5281 5282 5284 5287 5291 5294 5297 5301 5305 5308 5311 5315 5319 5323 5327 5331 5336 5341 5345 5350 5355 5359 5365 5370 5375 5380 5385 5391 5397 5403 5408 5412 5417 5422 5427 5431 5434
5271 5270 5269 5269 5270 5270 5271 5272 5275 5278 5281 5284 5287 5290 5293 5297 5300 5303 5307 5310 5314 5319 5325 5329 5333 5337 5342 5346 5351 5356 5362 5366 5371 5377 5382 5388 5392 5397 5402 5407 5412 5416 5421
5263 5261 5260 5260 5260 5261 5262 5263 5265 5267 5270 5273 5276 5279 5282 5284 5288 5292 5295 5299 5303 5307 5313 5317 5321 5326 5332 5336 5340 5345 5350 5354 5358 5363 5367 5372 5377 5382 5387 5392 5396 5401 5405
5254 5252 5251 5251 5251 5252 5253 5254 5255 5257 5259 5262 5265 5268 5270 5274 5277 5281 5286 5289 5292 5297 5302 5306 5310 5315 5320 5324 5329 5333 5338 5342 5345 5349 5354 5358 5362 5368 5373 5378 5382 5386 5390